カタログに戻る

ATLAS 5 CENTAUR DEB

運用中HEO
NORAD 49359·DEBRIS·🇺🇸 United States

打ち上げ Oct 17, 2018 から Cape Canaveral Space Force Station

Loading…

次のパス (今後24時間)

TLE

最新Source: Space-Track

元期: Sep 9, 2026, 02:17 UTC

1 49359U 18079FL  26252.09576259 -.00000202  00000-0  00000-0 0  9990
2 49359  13.4202  14.5741 4717163   0.7721 359.6201  1.87005977 34357

AllMySatでATLAS 5 CENTAUR DEBをリアルタイム追跡

Download on the App Store